Wind_Speed
11 7 2 3 4 5 2 2 2 3 3 4 2 7 7 3 2 4 2 10 4 14 14 10 7 7 7 6 7 7 7 8 7 5 6 8 7 8 11 9 10 10 10 10 10 10 9 8 8
9 2 2 3 5 4 4 4 2 1 6 5 6 3 5 3 2 4 4 9 11 14 13 10 7 8 6 5 5 7 5 6 6 6 5 5 6 7 7 7 8 8 9 8 8 9 8 7 6
3 3 3 4 4 4 4 0 2 2 2 1 4 4 2 2 2 7 7 12 13 13 11 10 8 6 6 3 5 4 2 4 5 5 5 5 5 5 6 6 6 6 6 6 6 6 6 5 4
1 5 4 4 3 1 2 4 4 4 1 6 2 6 2 2 2 5 13 13 14 12 11 9 8 7 5 2 4 4 4 5 5 5 5 6 4 4 5 6 6 6 4 4 4 5 4 3 2
4 3 4 4 2 1 1 1 3 2 1 3 2 4 3 2 4 8 16 13 12 12 10 10 8 6 5 3 3 4 5 5 5 5 5 5 6 6 5 6 7 8 7 6 5 4 4 3 3
4 3 4 3 2 0 1 4 3 2 1 1 4 4 2 4 7 15 14 11 8 10 10 10 7 5 4 4 5 6 3 5 7 6 6 5 4 6 7 7 7 9 10 9 8 6 5 5 4
5 4 5 6 6 2 5 6 4 5 4 1 3 3 2 8 12 14 12 10 8 8 8 9 8 5 5 5 4 4 5 6 6 5 5 6 6 4 5 6 7 7 9 10 9 8 6 5 6
4 4 5 3 6 4 4 3 4 2 2 1 1 3 4 1 19 18 13 10 11 8 8 9 9 8 7 6 5 5 4 3 6 8 7 2 4 2 1 3 5 7 8 9 10 9 7 6 6
3 5 3 7 7 4 5 4 2 1 5 2 3 2 5 17 21 23 20 18 14 9 10 11 9 7 6 8 5 3 5 6 7 8 8 8 10 11 5 4 4 5 6 6 8 9 9 8 8
4 4 9 6 5 4 5 3 6 4 3 3 3 6 13 16 19 22 19 21 19 18 15 12 10 9 8 8 8 9 12 12 13 12 12 12 11 11 10 9 7 7 8 7 7 9 10 10 11
3 4 5 3 3 4 6 3 2 7 3 6 8 7 5 14 16 18 20 20 21 19 18 16 15 15 15 15 15 15 16 16 16 16 16 16 15 15 15 14 15 13 11 11 9 8 10 11 11
3 2 4 4 3 4 5 6 2 3 1 3 9 8 7 9 11 18 20 22 22 21 19 17 16 16 17 17 16 16 17 16 17 17 16 15 16 16 17 17 16 16 16 14 14 12 12 12 12
3 2 5 5 6 5 6 3 3 4 3 7 10 8 9 9 11 17 22 21 21 21 19 18 17 17 17 17 17 16 17 17 17 17 16 15 15 16 15 16 16 17 17 16 16 16 15 14 14
3 3 4 2 3 3 3 2 0 4 6 7 9 9 8 11 16 18 20 21 21 21 20 19 18 17 15 16 15 15 15 16 16 17 16 15 15 15 16 16 17 16 16 16 17 17 16 16 16
5 1 2 1 3 2 5 2 7 5 7 9 8 8 8 11 20 23 25 24 23 21 20 18 16 14 13 13 13 14 14 15 17 17 16 16 15 16 16 16 16 17 16 16 17 17 16 17 17
5 5 2 0 3 1 2 7 2 7 10 9 9 8 8 7 18 21 22 23 22 22 19 16 14 13 12 13 13 12 12 14 15 15 16 15 15 16 16 16 17 17 17 18 18 19 19 19 19
5 3 3 8 4 2 3 6 1 5 7 9 9 9 8 7 9 17 20 21 22 20 18 16 13 12 11 10 9 9 9 12 14 14 15 15 15 16 17 18 17 18 18 18 18 19 19 21 21
6 3 3 5 1 1 2 11 5 5 8 11 9 8 8 8 9 21 21 20 19 18 15 14 12 10 8 8 7 5 6 9 11 13 13 15 16 17 18 19 19 20 21 20 20 21 21 19 20
5 3 3 2 2 3 6 9 12 8 7 9 9 9 9 9 10 19 20 20 18 17 16 14 12 9 7 5 3 1 4 6 8 11 12 14 15 16 18 20 21 21 22 22 23 24 24 24 21
3 3 3 3 1 3 4 11 11 4 6 9 13 11 11 7 7 14 19 20 21 20 17 15 12 9 6 3 1 2 4 5 8 10 10 11 11 13 16 18 21 22 23 24 23 21 21 20 18
2 3 2 4 4 1 6 7 5 2 2 3 6 5 6 12 11 8 18 22 21 21 21 18 14 11 8 6 4 5 6 7 7 10 11 10 11 13 15 17 19 21 23 23 22 20 18 16 19
1 1 2 2 3 3 4 5 6 4 8 4 5 7 9 10 7 7 15 21 24 24 20 18 15 13 10 9 8 8 9 9 9 11 12 13 16 17 19 19 20 22 22 20 19 19 20 20 22
2 4 3 3 3 3 3 2 7 5 6 8 7 6 7 8 9 10 18 30 28 21 19 18 16 14 12 10 10 11 10 9 10 10 13 16 19 21 23 24 23 22 21 20 21 22 23 23 26
6 4 6 4 3 1 2 3 5 4 5 7 5 5 6 7 7 9 17 16 20 17 17 16 15 14 12 10 11 10 9 8 10 13 16 19 23 26 26 25 23 23 25 26 26 27 27 27 27
5 5 3 4 3 5 1 2 6 5 4 4 9 9 5 5 6 7 8 12 18 18 15 14 12 11 10 9 8 7 7 9 11 15 19 24 26 26 24 25 29 30 30 27 27 27 26 26 27
2 5 5 4 2 4 1 5 2 3 5 5 4 3 2 2 2 4 6 7 10 11 10 10 10 9 8 6 5 5 8 11 15 19 22 24 23 23 28 30 29 29 31 32 34 34 34 32 31
2 2 2 5 3 1 3 5 4 7 8 8 10 10 8 7 6 6 4 2 1 3 5 5 6 6 3 2 5 9 14 18 20 21 22 22 26 29 29 29 33 34 30 30 29 31 32 31 30
2 5 3 3 2 3 4 4 3 5 5 7 9 8 7 6 7 5 5 3 2 1 2 2 2 2 0 5 11 15 19 19 20 22 25 26 28 29 32 35 33 33 32 29 29 29 29 30 29
2 0 5 4 3 4 2 5 5 2 4 6 7 8 8 8 7 7 7 8 6 4 4 4 3 0 5 11 15 18 19 19 21 24 26 28 31 34 35 33 32 31 31 30 30 32 32 30 29
2 4 5 4 4 1 4 5 1 3 4 4 6 6 6 6 6 6 8 6 4 4 3 2 1 6 11 15 17 17 18 22 26 27 29 33 37 34 34 32 31 32 32 31 32 32 28 28 28
Wind_Direction
346 349 115 61 57 66 357 317 291 106 56 339 22 97 116 87 83 157 295 181 184 165 165 166 155 134 127 102 94 83 79 68 64 75 79 71 56 65 57 56 56 57 55 60 59 62 64 80 85
340 9 73 85 82 72 287 300 83 81 144 138 75 83 58 82 106 125 134 172 153 160 161 160 155 147 127 103 89 95 89 56 58 74 70 86 62 49 51 52 51 44 39 52 58 58 68 61 77
351 34 79 84 107 150 184 213 120 88 59 183 105 60 108 78 34 152 161 156 157 155 160 160 161 154 142 121 110 106 113 57 62 71 62 67 67 51 41 43 38 36 28 38 42 54 61 56 64
148 23 37 76 96 183 188 148 143 146 85 48 103 74 36 52 200 184 165 156 154 156 157 161 158 157 164 121 110 91 73 60 56 59 57 58 60 46 30 28 25 23 18 10 9 21 35 48 40
51 59 58 72 8 69 30 134 140 117 45 30 20 140 96 15 359 179 162 163 159 159 158 152 148 153 148 130 117 103 73 54 47 53 46 40 40 38 33 28 33 36 29 9 345 339 343 350 357
42 97 72 146 199 170 3 129 107 92 298 80 97 118 115 350 132 149 163 158 158 160 159 152 140 135 120 106 105 110 85 57 64 62 49 37 32 35 38 38 44 37 27 17 12 350 320 310 314
113 82 156 150 177 243 190 159 176 168 141 97 152 108 133 15 131 153 159 160 149 161 165 156 142 144 122 108 100 96 100 85 59 40 19 24 30 31 27 23 20 21 21 15 9 5 351 331 309
107 90 112 196 186 220 184 113 127 117 158 326 358 188 156 100 124 135 138 143 152 161 170 162 162 160 156 132 131 110 87 64 57 51 39 25 338 334 344 352 353 1 358 357 356 2 353 338 316
118 71 166 196 158 212 167 134 48 105 104 71 8 76 120 133 127 118 111 110 123 120 156 162 159 167 161 147 122 115 94 73 60 49 47 45 41 48 49 18 349 347 331 333 339 341 342 335 332
87 116 208 187 181 181 163 140 148 126 96 57 52 51 124 134 128 115 112 107 103 99 108 130 134 141 118 118 106 89 88 79 72 64 63 55 49 50 50 46 38 21 4 329 320 322 329 326 319
144 171 169 177 156 130 128 106 99 125 218 197 177 154 118 120 113 110 115 115 113 109 108 114 119 116 110 107 104 95 85 78 71 65 59 57 54 51 47 41 35 31 20 18 10 357 343 333 330
107 71 133 133 104 101 134 122 96 187 227 254 154 140 120 125 126 131 123 124 123 118 113 114 114 112 106 107 102 96 84 74 64 55 50 45 47 44 41 37 31 25 20 13 7 359 349 346 337
99 120 66 85 87 89 116 92 218 210 113 107 125 123 136 131 132 133 131 130 130 123 122 118 117 113 110 107 103 93 81 68 59 50 44 40 40 38 34 30 23 18 16 14 7 360 351 345 338
69 67 101 106 124 119 124 132 64 185 142 126 139 148 153 151 150 139 142 139 136 133 131 126 121 117 115 108 102 90 79 65 52 47 43 40 39 36 23 15 11 8 5 2 359 355 348 341 335
95 21 46 147 168 142 132 288 235 161 154 154 158 160 163 168 161 161 157 151 146 141 138 136 129 123 116 109 102 95 82 62 52 49 46 40 36 22 18 16 15 10 3 355 348 344 337 334 333
62 47 40 276 142 33 132 268 322 163 154 177 176 180 176 183 182 172 166 158 154 151 151 145 138 128 117 112 105 94 79 56 51 46 40 35 27 22 18 16 11 3 354 348 343 344 337 335 330
6 204 215 320 196 123 153 262 181 172 173 190 192 191 189 186 188 185 177 172 167 163 159 153 144 130 119 116 107 97 75 55 47 40 34 29 21 13 9 5 2 355 351 350 348 343 342 334 330
209 199 238 239 207 95 224 261 242 194 190 207 199 199 198 191 201 189 188 182 174 172 168 162 154 146 136 129 125 107 71 46 36 28 23 17 14 6 360 356 353 348 344 341 339 336 331 330 330
139 169 221 238 213 173 239 267 271 208 213 216 208 207 206 198 207 195 191 187 185 184 182 179 176 170 165 157 160 85 21 16 15 11 8 1 358 356 351 346 342 340 336 334 331 329 327 325 330
150 169 256 282 104 170 320 277 267 191 224 212 210 206 202 180 200 198 197 195 196 196 196 195 195 198 205 212 250 308 326 329 341 349 349 346 343 342 339 336 334 334 331 328 327 326 323 317 325
142 175 211 238 337 75 330 292 321 34 336 277 240 192 179 189 190 198 203 203 204 208 207 208 210 214 219 226 241 270 291 300 313 325 331 332 330 328 327 327 326 325 324 321 319 318 315 311 316
241 297 118 71 50 263 18 286 304 337 324 314 284 197 188 187 189 190 201 208 211 215 215 218 223 225 226 230 246 267 276 288 308 317 319 322 323 323 324 322 320 317 316 311 310 310 303 299 298
171 65 62 64 87 15 336 94 272 345 348 343 334 242 222 204 192 197 203 214 218 220 222 226 229 231 228 237 254 269 269 284 301 307 309 313 315 318 319 318 314 310 308 302 296 297 294 287 287
143 76 46 52 76 354 301 144 295 336 303 309 324 303 232 210 214 226 225 227 226 227 229 231 234 229 230 245 265 265 274 290 302 310 311 314 316 316 315 314 312 310 307 303 298 295 291 288 284
72 61 335 346 10 225 315 102 252 306 321 298 304 307 246 210 208 231 235 225 232 231 236 236 229 224 240 262 264 270 291 309 313 314 314 315 315 313 315 313 311 310 309 302 298 293 288 286 283
94 145 156 244 227 276 91 237 251 307 331 332 326 332 122 213 255 278 300 281 262 258 251 228 227 240 260 265 268 301 316 318 317 316 315 311 309 309 311 310 310 306 301 295 294 293 290 287 283
160 158 169 104 25 36 275 297 328 3 5 13 30 42 28 16 15 12 7 360 271 211 220 233 244 253 247 274 314 318 320 320 318 317 315 311 310 311 312 309 304 306 303 300 296 294 287 283 277
116 153 71 14 215 267 296 285 235 350 339 10 19 22 14 21 29 17 21 37 79 103 161 190 175 163 284 320 320 320 320 319 318 316 315 315 314 311 309 309 310 309 303 296 293 292 285 277 274
72 55 54 115 127 177 281 273 217 265 353 9 30 34 28 33 33 23 34 50 73 98 125 129 133 327 321 321 320 319 319 318 317 317 317 316 315 313 312 310 307 302 298 292 287 286 284 274 271
177 184 146 125 219 91 144 273 279 26 359 32 45 37 31 43 36 44 55 67 81 103 131 147 320 325 327 324 320 316 317 321 320 320 318 317 316 316 314 310 302 300 294 288 281 278 280 274 273
Height
778 777 777 778 810 820 834 821 809 813 814 807 804 809 818 818 823 843 815 815 816 818 820 822 824 825 826 826 826 826 826 826 825 825 825 825 826 825 825 824 824 824 823 823 823 822 823 822 822
777 777 777 788 828 845 840 814 815 812 809 807 807 811 816 823 814 815 816 815 816 819 821 824 825 826 827 828 828 828 828 827 827 827 826 826 827 827 826 826 825 826 825 825 824 824 824 824 824
776 776 786 806 832 843 837 813 813 810 806 806 812 811 813 819 814 814 814 815 818 821 823 825 826 827 828 829 829 829 829 829 829 828 828 828 828 828 827 827 826 826 826 826 826 825 825 825 825
776 778 793 820 825 819 815 810 809 810 806 805 809 820 814 814 814 813 814 817 819 821 823 824 826 827 829 830 830 830 831 830 830 829 829 828 828 828 828 827 827 826 826 827 827 827 826 826 826
776 787 818 828 821 814 810 808 809 811 811 812 809 820 819 813 812 812 816 818 820 821 823 825 827 829 830 830 831 831 832 831 831 830 830 829 829 829 828 828 827 827 827 827 827 827 827 826 826
789 795 827 837 824 813 809 807 809 813 814 812 815 817 819 814 813 814 816 819 821 823 825 826 828 829 831 830 832 832 832 832 832 831 830 830 830 830 829 829 828 828 827 827 827 826 827 826 826
793 809 826 829 829 817 811 808 813 815 815 815 811 818 818 814 814 815 817 819 822 824 826 827 828 830 830 831 832 832 832 833 833 832 831 831 831 830 830 830 830 828 827 827 827 826 826 826 826
791 806 823 821 828 817 803 806 809 810 816 811 811 820 822 817 816 815 818 820 822 824 825 827 828 829 830 831 831 832 832 832 832 832 831 831 831 830 830 830 831 830 829 828 828 826 826 825 825
784 817 829 818 821 807 804 807 808 809 813 814 815 814 816 817 817 816 819 821 823 824 824 826 827 829 829 830 832 832 832 832 832 832 832 831 831 830 830 830 830 830 829 829 828 827 826 825 825
795 817 812 801 802 803 803 802 809 812 815 818 818 817 817 818 818 817 820 823 825 826 827 826 828 829 828 830 832 833 833 832 833 832 832 832 831 831 831 831 830 829 829 828 827 827 826 825 825
793 804 797 795 794 796 803 808 807 815 819 815 817 818 818 819 819 820 822 824 826 827 828 828 828 829 829 830 832 833 834 834 834 834 834 833 833 832 832 831 830 829 828 828 827 826 826 824 823
792 792 792 795 794 798 804 807 811 811 810 808 811 815 818 821 822 822 823 824 827 827 829 830 830 830 831 832 833 835 835 836 836 836 836 835 834 834 832 832 832 831 829 829 827 826 826 825 823
790 793 794 797 798 803 804 810 808 811 811 810 813 816 820 822 824 825 825 827 828 828 831 831 832 832 833 833 835 836 837 837 838 837 836 836 835 835 834 833 832 831 830 829 827 826 825 825 823
792 796 798 797 801 802 804 812 809 810 812 814 815 819 821 822 823 825 827 827 829 830 831 833 833 833 834 835 837 837 838 839 839 838 837 837 836 835 835 834 833 831 830 829 828 826 825 824 822
793 802 800 801 802 805 806 813 814 807 812 816 818 820 821 823 824 823 824 826 828 830 832 833 834 835 835 836 837 839 839 840 839 839 838 837 837 836 835 834 833 832 831 829 828 826 824 822 820
804 811 818 804 804 806 806 823 804 809 813 817 819 821 821 822 822 824 826 827 829 830 832 834 835 836 836 837 838 839 840 840 839 839 838 837 837 836 835 834 833 831 830 828 826 823 821 820 818
821 824 823 817 807 807 811 815 805 811 813 816 819 820 820 821 822 824 825 827 828 830 831 833 835 836 837 838 838 839 840 839 839 838 838 837 836 835 834 833 831 830 828 826 824 822 819 816 814
822 823 822 822 810 810 814 816 808 811 814 813 816 819 819 820 819 820 823 826 828 829 832 833 835 836 837 838 838 839 839 838 838 837 837 836 835 834 833 831 829 827 825 823 822 819 817 815 812
812 817 816 811 806 812 817 816 806 808 812 813 815 816 817 818 817 818 821 824 827 829 830 832 833 835 836 837 837 837 837 837 837 836 835 834 833 832 831 829 827 825 823 820 818 815 813 810 809
806 813 818 812 807 813 814 813 801 801 804 803 804 810 813 817 816 817 819 822 824 826 828 830 832 833 834 835 835 836 835 835 834 834 833 832 831 830 828 827 825 822 820 818 816 814 811 808 808
809 816 817 818 814 813 820 815 802 798 799 798 801 803 808 810 813 815 817 819 822 824 826 828 830 831 832 833 834 834 834 833 832 832 831 830 829 828 826 824 822 820 817 814 812 810 808 806 805
816 809 811 815 824 837 822 841 812 808 805 800 800 803 804 807 810 812 815 817 818 820 825 827 829 830 831 832 832 832 832 831 830 829 828 827 826 824 822 820 818 816 813 811 809 807 805 802 800
814 812 817 822 833 833 833 844 817 810 805 803 801 804 804 804 806 809 811 811 815 820 823 825 827 828 830 830 831 830 829 828 827 826 825 824 823 821 818 816 813 810 808 806 803 801 799 797 794
813 819 832 840 844 851 836 840 827 820 814 810 803 801 803 805 806 807 809 813 816 819 821 823 824 827 829 829 828 828 827 825 824 823 822 820 818 816 814 811 808 806 803 801 798 795 792 790 788
818 831 850 848 851 850 835 841 824 815 810 810 809 805 802 804 807 808 809 811 814 817 819 821 823 825 826 826 826 825 824 823 822 821 818 815 812 810 808 805 802 799 796 793 790 788 785 784 781
822 829 852 841 851 848 838 839 821 813 812 811 807 803 802 805 808 810 812 813 815 817 818 820 822 823 823 823 823 823 822 821 819 817 814 812 808 806 803 799 796 792 789 786 783 780 777 774 772
826 835 833 851 860 858 844 828 813 816 813 811 810 809 811 811 812 812 811 812 813 815 817 819 820 821 821 822 822 821 820 818 815 813 810 807 804 800 796 793 789 785 781 778 775 771 768 766 764
819 828 842 854 845 847 847 840 833 822 817 816 818 819 817 814 814 813 812 812 813 815 816 817 818 819 820 821 820 818 816 814 811 809 805 802 798 795 790 785 780 776 772 769 767 763 760 757 755
832 834 846 850 858 853 855 842 829 821 820 823 824 822 821 819 817 816 815 815 815 816 816 817 818 819 819 818 817 815 813 810 808 804 800 797 792 787 782 777 773 769 765 762 758 755 751 749 747
823 827 836 850 848 871 882 851 821 823 824 823 825 824 823 821 820 819 818 818 818 818 818 818 818 818 817 815 813 811 809 806 802 798 794 790 783 779 774 770 766 761 757 753 749 745 743 740 738